Starlink 31384

operational
NORAD ID: 58983 Int'l Des: 2024-031 Owner: SPXS Country: US Constellation: starlink
LEOCIRCULAR

Über Starlink 31384

Beschreibung wird geladen...

Live-Position

3D-Globus wird geladen...

Nächste Überflüge

Höhenverlauf

Altitude vs Time

uPlot chart will show altitude changes over time

Zweizeiliger Elementsatz

1 58983U 24031U 26035.14283434 .00000440 00000-0 26972-4 0 9996
2 58983 53.1603 92.7513 0001003 82.4156 277.6959 15.30188019111374
Epoch: 4. Feb. 2026 • Age: 6 hours

Aktueller Status

Höhe 478.4 km
Geschwindigkeit 7.63 km/s
Subsatellitenpunkt -11.27°S, 163.89°E
Startdatum 15. Feb. 2024
Alter 1.9 years
Typ internet

Technische Details

Klassifizierung Payload
Masse 730.00 kg
Trockenmasse 700.00 kg
Gesamtmasse 730.00 kg
Länge 0.30 m
Durchmesser 4.10 m
Spannweite 29.00 m
Form Box + pan
Hersteller SPXS
Bus-Typ Starlink V2M
Phasenstatus In Orbit
Besitzer/Staat SPXS/US

Große Konstellationen

Loading constellations...